User: anonymous   Login
Location: Unspecified
(0.0000°N, 0.0000°E)
Time: 21:57:58
(UTC+00:00)
Language:

Aussat K2 - Orbit

View from above orbital plane
View from above orbital plane
View from above satellite
View from above satellite

Ground track
Ground track

The orbit data is extracted from the following two-line orbital elements,

1 16275U 85109C   19114.23902190 -.00000273  00000-0  00000+0 0  9998
2 16275  15.1302   1.6229 0006517 313.6370 273.9026  0.99940778111989
Epoch (UTC): 24 April 2019 05:44:11
Eccentricity: 0.0006517
inclination: 15.1302°
perigee height: 35852 km
apogee height: 35907 km
right ascension of ascending node: 1.6229°
argument of perigee: 313.6370°
revolutions per day: 0.99940778
mean anomaly at epoch: 273.9026°
orbit number at epoch: 11198

The dashed part of the orbit path shows where the satellite is in the earth's shadow,  

DLR